This demonstration page uses our WeatherBlox Daily Observations layout. Learn more.

Left ArrowRight Arrow

39.12711, -84.51439

Hourly Observations for July 23, 2021

Temp ( °F °C ) Dew Point ( °F °C ) Humidity (%) Winds ( mph kmh ) Pressure ( in mb ) Visibility ( mi km ) Precip ( " mm )
12:53 am 00:53 Clear 63 17.2 61 16.1 93 93 N N/A 30.19 1022 10 16 N/A
1:53 am 01:53 Clear 63 17.2 61 16.1 93 93 N N/A 30.18 1022 10 16 N/A
2:53 am 02:53 Clear 63 17.2 61 16.1 93 93 N N/A 30.17 1022 10 16 N/A
3:53 am 03:53 Clear 62 16.7 61 16.1 96 96 N N/A 30.17 1022 10 16 N/A
4:53 am 04:53 Clear 61 16.1 61 16.1 100 100 N N/A 30.18 1022 8 13 N/A
5:53 am 05:53 Clear with Mist and Fog 61 16.1 59 15 93 93 N N/A 30.18 1022 3 5 N/A
6:10 am 06:10 Clear with Mist and Fog 61 16.1 60 15.6 97 97 N N/A 30.19 1022 3 4 N/A
6:18 am 06:18 Clear with Mist and Fog 60 15.6 59 15 96 96 N N/A 30.20 1023 6 10 N/A
6:53 am 06:53 Sunny 60 15.6 59 15 96 96 N N/A 30.19 1023 5 8 N/A
7:53 am 07:53 Sunny 63 17.2 62 16.7 97 97 NE 3 6 30.20 1023 10 16 N/A
8:53 am 08:53 Sunny 67 19.4 63 17.2 87 87 N N/A 30.21 1023 10 16 N/A
9:53 am 09:53 Sunny 73 22.8 64 17.8 74 74 N N/A 30.21 1023 10 16 0.00 0.00
10:53 am 10:53 Sunny 77 25 63 17.2 62 62 N N/A 30.21 1023 10 16 N/A
11:53 am 11:53 Sunny 79 26.1 63 17.2 58 58 SSW 5 7 30.20 1023 10 16 N/A
12:53 pm 12:53 Sunny 80 26.7 63 17.2 56 56 VRB 3 6 30.19 1022 10 16 N/A
1:53 pm 13:53 Sunny 81 27.2 63 17.2 54 54 VRB 5 7 30.17 1022 10 16 N/A
2:53 pm 14:53 Sunny 84 28.9 63 17.2 49 49 N N/A 30.15 1021 10 16 N/A
3:53 pm 15:53 Sunny 83 28.3 64 17.8 53 53 S 6 9 30.14 1021 10 16 N/A
4:53 pm 16:53 Sunny 83 28.3 62 16.7 49 49 N N/A 30.12 1020 10 16 N/A
5:53 pm 17:53 Sunny 83 28.3 65 18.3 55 55 SW 7 11 30.10 1019 10 16 N/A
6:53 pm 18:53 Sunny 82 27.8 65 18.3 56 56 N N/A 30.09 1019 10 16 N/A
7:53 pm 19:53 Sunny 79 26.1 67 19.4 67 67 SSE 3 6 30.09 1019 10 16 N/A
8:53 pm 20:53 Sunny 76 24.4 67 19.4 74 74 N N/A 30.09 1019 10 16 N/A
9:53 pm 21:53 Clear 71 21.7 67 19.4 87 87 N N/A 30.09 1019 10 16 N/A
10:53 pm 22:53 Clear 69 20.6 65 18.3 87 87 N N/A 30.10 1019 10 16 N/A
11:53 pm 23:53 Clear 67 19.4 65 18.3 93 93 S 3 6 30.10 1019 10 16 N/A

Powered by AerisWeather